www.pogodaiklimat.ru

Погода и климат >> Архив погоды >> Филиппины >> Касигуран


ПОГОДА в Касигуране

  • Прогноз погоды в Касигуране
  • Монитор погоды в Касигуране

АРХИВ ПОГОДЫ в Касигуране

Время (UTC), дата Ветер
(напр.,м/с)
 
Видим.   Явления Облачность Т
(С)
Тd
(С)
f
(%)
Тe
(С)
Тes
(С)
Комфортность P
(гПа)
Po
(гПа)
Тmin
(С)
Tmax
(С)
R
(мм)
R24
(мм)
S
(см)
21 16.08 штиль 0 17 км 4/1 450 м
[Cu med, cong Ci fib]
+25.0 +23.6 92 +34 +34 очень
душно
1008.2 1007.4
00 17.08 штиль 0 19 км мгла {туман} 8/1 450 м
[Cu med, cong Ac trans Ci]
+28.6 +24.9 80 +41 +46 опасность
перегрева
1009.1 1008.3 +24.0
03 17.08 ЮЗ 4 19 км мгла {туман} 8/1 500 м
[Cu hum Ci]
+32.7 +25.8 67 +48 +59 опасность
перегрева
1009.4 1008.6
06 17.08 ЮЗ 2 18 км мгла {туман} 9/3 480 м
[Cu med, cong Ci]
+34.5 +26.4 63 +51 +61 опасность
перегрева
1007.1 1006.3
09 17.08 В 4 18 км мгла {туман} 9/4 450 м
[Cb cap Ac cuf Cs]
+32.4 +26.4 71 +49 +49 опасность
перегрева
1006.9 1006.1
12 17.08 штиль 0 17 км зарница {туман} 9/3 450 м
[Cb cap Ac As Cs]
+29.0 +26.4 86 +44 +44 опасность
перегрева
1009.3 1008.5 +36.4
15 17.08 СВ 2 18 км {гроза} 9/1 480 м
[Cu med, cong Ac trans Cs]
+26.8 +24.7 88 +38 +38 очень
душно
1009.6 1008.8
18 17.08 штиль 0 17 км 10/1 500 м
[Cu med, cong Ac trans Cs]
+26.0 +24.7 93 +37 +37 очень
душно
1008.8 1008.0
21 17.08 штиль 0 17 км 10/1 540 м
[Sc Ac lent Cs]
+25.2 +24.4 95 +35 +35 очень
душно
1008.1 1007.3
00 18.08 штиль 0 18 км мгла {туман} 10/1 540 м
[Cu med, cong Ac trans Cs]
+27.8 +25.4 87 +41 +45 опасность
перегрева
1008.8 1008.0 +25.2
03 18.08 ЮЗ 2 20 км мгла {туман} 8/3 540 м
[Cu med, cong Ac trans Ci fib]
+33.0 +26.9 70 +51 +60 опасность
перегрева
1008.8 1008.0
06 18.08 Ю 2 20 км {туман} 5/3 540 м
[Cu med, cong Ci fib]
+35.0 +27.4 65 +54 +65 опасность
перегрева
1006.8 1006.0
09 18.08 ЮЗ 1 20 км 4/3 540 м
[Cu med, cong Ci fib]
+33.8 +27.0 68 +52 +53 опасность
перегрева
1005.6 1004.8
12 18.08 штиль 0 18 км 4/3 450 м
[Cu med, cong Ci fib]
+30.4 +27.6 85 +49 +49 опасность
перегрева
1006.8 1006.0 +35.6
15 18.08 штиль 0 18 км 6/1 450 м
[Cu med, cong Ci fib]
+28.0 +25.4 86 +41 +41 опасность
перегрева
1007.8 1007.0
18 18.08 штиль 0 17 км 5/3 450 м
[Cu med, cong Ci fib]
+26.2 +24.0 88 +36 +36 очень
душно
1006.6 1005.8
21 18.08 штиль 0 17 км 9/1 450 м
[Cu med, cong Ac trans Cs]
+25.0 +23.0 89 +33 +33 очень
душно
1006.0 1005.2
00 19.08 штиль 0 16 км мгла {туман} 10/3 450 м
[Cu med, cong Cs]
+28.0 +24.0 79 +39 +44 очень
душно
1006.8 1006.0 +23.5
03 19.08 штиль 0 16 км мгла {туман} 10/3 450 м
[Cu med, cong Ac As Cs]
+32.0 +28.2 80 +53 +63 опасность
перегрева
1008.7 1007.9
06 19.08 СВ 3 16 км мгла {туман} 10/3 450 м
[Cu med, cong Ac As Cs]
+34.0 +29.0 75 +57 +62 опасность
перегрева
1007.9 1007.0
09 19.08 СВ 2 16 км мгла {туман} 10/3 450 м
[Cb cap Ac As Ci fib]
+32.2 +28.2 79 +53 +54 опасность
перегрева
1006.8 1006.0
12 19.08 штиль 0 16 км {туман} 9/3 450 м
[Cu med, cong Ac As]
+29.0 +27.7 93 +47 +47 опасность
перегрева
1008.6 1007.8 +34.8
15 19.08 штиль 0 16 км 9/3 450 м
[Cu med, cong Ac trans]
+28.6 +27.2 92 +45 +45 опасность
перегрева
1008.9 1008.1
18 19.08 штиль 0 17 км 9/3 450 м
[Cu med, cong Cs]
+28.0 +26.7 93 +44 +44 опасность
перегрева
1008.8 1008.0
21 19.08 штиль 0 17 км 9/3 450 м
[Cu med, cong Ac und]
+28.0 +26.7 93 +44 +44 опасность
перегрева
1008.8 1008.0
00 20.08 штиль 0 18 км мгла {туман} 10/1 450 м
[Cu med, cong Ac lent Cs]
+27.7 +24.9 85 +40 +44 очень
душно
1007.8 1007.0 +25.0
03 20.08 Ю 3 17 км мгла {туман} 9/4 450 м
[Cu med, cong Ac trans Cs]
+32.7 +27.0 72 +51 +57 опасность
перегрева
1008.6 1007.8
06 20.08 В 3 16 км осадки на расстоянии {туман} 9/4 450 м
[Cu med, cong Ac As Cs]
+31.2 +27.1 79 +49 +54 опасность
перегрева
1006.3 1005.5
09 20.08 В 3 16 км мгла {туман} 9/3 450 м
[Cu med, cong Ac trans Cs]
+31.8 +27.4 78 +51 +51 опасность
перегрева
1006.9 1006.1
12 20.08 штиль 0 15 км зарница {гроза, туман} 9/3 450 м
[Cb cap Ac As]
+29.0 +27.1 90 +46 +46 опасность
перегрева
1007.7 1006.9 +34.2
15 20.08 штиль 0 17 км 9/3 450 м
[Cu med, cong Ac As]
+27.2 +25.9 93 +41 +41 опасность
перегрева
1008.3 1007.5
18 20.08 штиль 0 17 км 9/1 450 м
[Cu med, cong Ac trans Cs]
+26.5 +24.8 90 +38 +38 очень
душно
1006.2 1005.4
21 20.08 штиль 0 18 км 9/1 500 м
[Sc Ac lent Cs]
+25.0 +24.8 99 +35 +35 очень
душно
1006.2 1005.4
00 21.08 штиль 0 18 км мгла {туман} 9/1 540 м
[Cu med, cong Ac trans Cs]
+27.4 +25.3 88 +40 +44 очень
душно
1007.8 1007.0 +25.0
03 21.08 СВ 1 18 км мгла {туман} 6/1 540 м
[Cu med, cong Ac trans Cs]
+33.2 +26.5 68 +50 +66 опасность
перегрева
1007.8 1007.0
06 21.08 ЮЗ 2 16 км гроза без осадков {туман} 9/4 450 м
[Cb cap Ac As Ci fib]
+32.0 +26.6 73 +49 +54 опасность
перегрева
1006.6 1005.8
09 21.08 штиль 0 10 км гроза, ливневой дождь 10/6 300 м
[Cb cap As op]
+24.5 +23.7 95 +33 +33 очень
душно
1007.6 1006.8 146
12 21.08 штиль 0 16 км зарница {гроза, дождь} 10/3 450 м
[Cb cap Ac As]
+25.0 +23.9 94 +34 +34 очень
душно
1008.5 1007.7 +34.4 146
15 21.08 штиль 0 16 км 10/3 450 м
[Cu med, cong Ac As]
+25.2 +24.3 95 +35 +35 очень
душно
1008.8 1008.0
18 21.08 штиль 0 16 км 9/3 450 м
[Cu med, cong Ac As]
+24.6 +23.8 95 +33 +33 очень
душно
1006.8 1006.0
21 21.08 штиль 0 16 км 10/3 450 м
[Cu med, cong Ac As]
+24.1 +23.6 97 +33 +33 очень
душно
1006.0 1005.2
00 22.08 штиль 0 16 км мгла {туман} 9/1 450 м
[Cu med, cong Ac und Cs]
+26.5 +25.9 97 +40 +44 очень
душно
1005.8 1005.0 +23.6 146
03 22.08 штиль 0 16 км мгла {туман} 10/3 450 м
[Cu med, cong Cs]
+30.4 +26.0 77 +45 +61 опасность
перегрева
1005.9 1005.1
06 22.08 ЮЗ 2 16 км мгла {туман} 10/3 450 м
[Cu med, cong Cs]
+32.0 +28.2 80 +53 +62 опасность
перегрева
1004.3 1003.5
09 22.08 штиль 0 16 км мгла {туман} 9/3 450 м
[Cu med, cong Cs]
+31.6 +25.6 71 +47 +48 опасность
перегрева
1004.2 1003.4
12 22.08 штиль 0 15 км {туман} 10/3 450 м
[Cu med, cong Ac As]
+33.0 +26.5 69 +50 +50 опасность
перегрева
1005.0 1004.2
15 22.08 штиль 0 16 км {гроза} 9/3 450 м
[Cu med, cong Ac As]
+27.0 +25.2 90 +39 +39 очень
душно
1004.6 1003.8
18 22.08 штиль 0 17 км 9/1 450 м
[Cu med, cong Ac As Ci fib]
+26.2 +25.2 94 +38 +38 очень
душно
1003.3 1002.5
21 22.08 В 2 17 км 10/1 450 м
[Cu med, cong Ac As Cs]
+25.2 +24.8 98 +36 +36 очень
душно
1002.1 1001.3
00 23.08 штиль 0 16 км 10/3 450 м
[Cu med, cong Ac und Cs]
+27.0 +26.0 94 +40 +44 очень
душно
1002.8 1002.0 +24.9
03 23.08 штиль 0 17 км 9/1 450 м
[Cu med, cong Ac und Cs]
+30.4 +26.3 79 +46 +60 опасность
перегрева
1003.6 1002.8
06 23.08 Ю 4 18 км 9/1 450 м
[Cb cap As op Cs]
+33.0 +28.0 75 +54 +59 опасность
перегрева
1000.9 1000.1
09 23.08 ЮЗ 4 16 км 10/3 450 м
[Cu med, cong Cs]
+30.0 +26.1 80 +45 +46 опасность
перегрева
1000.8 1000.0
12 23.08 ЮЗ 5 16 км 9/3 450 м
[Cu med, cong Ac As]
+29.3 +25.1 78 +42 +42 опасность
перегрева
1001.1 1000.3 +33.6

 

Местоположение метеостанции Касигуран (Филиппины): широта 16.28 долгота 122.11 высота над уровнем моря 4 м.

В архиве по умолчанию представлена погода в Касигуране за последнюю неделю. Архивные данные за месяц целиком и за предыдущие месяцы, начиная с января 2011 года, Вы можете получить, выбрав интересующий диапазон дат из раскрывающегося списка и нажав кнопку "Ввод!".


*Определитесь, кто Вы:
робот инопланетянин человек

Внимание! Время в таблицах - всемирное. Для получения местного времени необходимо прибавить поправку, которая равна 8 ч.

Смотрите также архив погоды в соседних городах и на ближайших метеорологических станциях:

Погода в Балер Радар (Филиппины) (78 км)
Погода в Кабанатуане (Филиппины) (152 км)
Погода в Тугегарао (Филиппины) (154 км)
Погода в Багио (Филиппины) (162 км)
Погода в Инфанте (Филиппины) (177 км)
Погода в Дагупане (Филиппины) (192 км)
Погода на Базе ВВС Clark (Филиппины) (207 км)
Погода в Танае (Филиппины) (214 км)
Погода в Научном саду (Филиппины) (218 км)
Погода в Маниле (Филиппины) (225 км)

Пояснения к столбцам:

Ветер - указаны скорость ветра в м/с - средняя за 10 мин, порывы в срок и между сроками (в фигурных скобках) и направление, откуда дует ветер: С - северный, СВ - северо-восточный, В - восточный, ЮВ - юго-восточный, Ю - южный, ЮЗ - юго-западный, З - западный, СЗ - северо-западный.
Видимость - горизонтальная дальность видимости в метрах или километрах. При видимости от 1 до 10 км при отсутствии осадков обычно наблюдается дымка, при ухудшении видимости до 1 км и менее - туман. В сухую погоду видимость может ухудшаться дымом, пылью или мглою.
Явления - указаны атмосферные явления, наблюдавшиеся в срок или в последний час перед сроком; фигурными скобками обозначены явления, наблюдавшиеся между сроками (за 1-3 часа до срока); квадратными скобками обозначены град или гололедные отложения с указанием их диаметра в мм.
Облачность - указаны через наклонную черту общая и нижняя облачность в баллах и высота нижней границы облаков в метрах; квадратными скобками обозначены формы облаков: Ci - перистые, Cs - перисто-слоистые, Cc - перисто-кучевые, Ac - высококучевые, As - высокослоистые, Sc - слоисто-кучевые, Ns - слоисто-дождевые, Cu - кучевые, Cb - кучево-дождевые. Подробнее классификацию облаков см. в Атласе облаков (PDF).
T - Температура воздуха - температура, измеренная на высоте 2 м над землей.
Td - Температура точки росы - температура, при понижении до которой содержащийся в воздухе водяной пар достигнет насыщения.
f - Относительная влажность воздуха - влажноcть воздуха, измеренная на высоте 2 м над землей.
Te - Эффективная температура - температура, которую ощущает одетый по сезону человек в тени. Характеристика душности погоды. При расчете учитывается влияние влажности воздуха и скорости ветра на теплоощущения человека.
Tes - Эффективная температура на солнце - температура, которую ощущает человек, с поправкой на солнечный нагрев. Характеристика знойности погоды. Зависит от высоты солнца над горизонтом, облачности и скорости ветра. Ночью, в пасмурную погоду, а также при ветре 12 м/с и более поправка равна нулю.
P - Атмосферное давление - приведенное к уровню моря атмосферное давление.
Po - Атмосферное давление - измеренное на уровне метеостанции атмосферное давление.
Tmin - Минимальная температура - минимум температуры воздуха на высоте 2 м над землей.
Tmax - Максимальная температура - максимум температуры воздуха на высоте 2 м над землей.
R - Количество осадков - Количество выпавших осадков за период времени, мм. При наведении курсора мыши на число - период времени, за который выпало указанное количество осадков.
R24 - Количество осадков - Количество выпавших осадков за 24 часа, мм.
S - Снежный покров - Высота снежного покрова, см. При наведении курсора мыши на число - состояние снежного покрова и степень покрытия местности в баллах.